Regional Weather Roundup
Issued by NWS Jackson, KY

Home | Current Version | Previous Version | Graphics & Text | Print | Product List | Glossary On
Versions: 1 2 3 4 5 6 7 8 9 10 11 12 13 14 15 16 17 18 19 20 21 22 23 24 25 26 27 28 29 30 31 32 33 34 35 36 37 38 39 40 41 42 43 44 45 46 47 48 49 50
000
ASUS43 KJKL 201911
RWRJKL

EAST KENTUCKY HOURLY WEATHER ROUNDUP
NATIONAL WEATHER SERVICE JACKSON KY
300 PM EDT WED AUG 20 2014

NOTE: "FAIR" INDICATES FEW OR NO CLOUDS BELOW 12,000 FEET WITH
NO SIGNIFICANT WEATHER AND/OR OBSTRUCTIONS TO VISIBILITY.

* THESE REPORTS ARE NOT UNDER NWS QUALITY CONTROL AND MAY NOT
  REPORT WEATHER SUCH AS PRECIPITATION AND FOG.

KYZ079-080-083-085-087-088-110-112-115-119-120-202000
...EASTERN KENTUCKY...

CITY           SKY/WX    TMP DP  RH WIND       PRES   REMARKS
JACKSON        MOSUNNY   85  71  63 VRB5      30.03F HX  90
LONDON         MOSUNNY   89  72  56 W8        30.02F HX  96
SOMERSET*      MOSUNNY   86  72  62 W7        30.02F HX  92
MONTICELLO*    MOSUNNY   90  76  63 W6        30.02F HX 101
WILLIAMSBURG*  SUNNY     88  73  62 CALM      30.01F HX  96
MIDDLESBORO*   PTSUNNY   86  74  66 SW5       30.02F HX  94
HARLAN APT*    MOCLDY    79  72  78 MISG      30.04F
HAZARD APT*    MOCLDY    82  72  69 CALM      30.02F
BLACK MTN*       N/A     70  68  94 S2          N/A
PIKEVILLE APT* PTSUNNY   82  70  65 SW3       30.03S
BIG SANDY*     MOCLDY    85  72  65 W8        30.02S HX  90
MOREHEAD APT*  PTCLDY    84  72  65 SW10      30.02R
$$

KYZ035-036-041-042-044-050-067-078-099-202000
...CENTRAL KENTUCKY...

CITY           SKY/WX    TMP DP  RH WIND       PRES   REMARKS
MT STERLING*   PTSUNNY   84  72  65 NW6       30.02R
FLEMING/MASON* MOSUNNY   84  70  61 W9        30.00R
DANVILLE*      PTSUNNY   88  73  62 W8        30.01F HX  96
RICHMOND*      MOSUNNY   86  72  62 W3        29.99F HX  92
LEXINGTON      MOSUNNY   89  72  56 W9        30.00S HX  96
FRANKFORT      PTSUNNY   86  70  58 W7        29.98S HX  90
$$

KYZ091>093-OHZ055-061-077-WVZ005-015-034-035-042-202000
...SOUTHERN OHIO/WEST VIRGINIA...

CITY           SKY/WX    TMP DP  RH WIND       PRES   REMARKS
COVINGTON      CLOUDY    85  67  54 W9        29.98R
COLUMBUS       MOSUNNY   87  64  46 SW14      29.93F
DAYTON         PTSUNNY   86  64  47 W14       29.98R
WILMINGTON     MOSUNNY   84  67  56 W9        29.97R
HUNTINGTON     MOSUNNY   84  71  65 SW7       29.97S
CHARLESTON     PTSUNNY   84  68  58 W7        29.98S
PINEVILLE*     MOSUNNY   83  72  68 MISG      30.09F
BECKLEY        MOSUNNY   78  62  57 W13       30.07F
BLUEFIELD      MOSUNNY   81  62  52 W8        30.11S
$$

VAZ002-007-008-TNZ017-027-036-066-071-202000
...SOUTHWEST VIRGINIA/EAST TENNESSEE...

CITY           SKY/WX    TMP DP  RH WIND       PRES   REMARKS
WISE*          MOSUNNY   81  66  61 W8        30.12S
JONESVILLE*      N/A     81  73  78 CALM      30.06F THUNDER
ABINGDON*      CLOUDY    80  71  73 W7        30.09F
BRISTOL        MOSUNNY   81  67  62 CALM      30.06F
KNOXVILLE      PTSUNNY   83  73  72 SW9       30.01F THUNDER
OAK RIDGE      HVY RAIN  77  69  76 NW6G26    30.07R
CROSSVILLE     MOSUNNY   86  72  62 SW9       30.07F HX  92
NASHVILLE      PTSUNNY   91  74  57 SW10G20   29.97F THUNDER HX 100
$$

...KEY TO REMARKS...
VSB - VISIBILITY IN MILES
WCI - WIND CHILL INDEX
HX  - HEAT INDEX

$$



USA.gov is the U.S. government's official web portal to all federal, state and local government web resources and services.